Marion-Critt Cnty AP, Marion,, KY

7:31 AM CST on December 13, 2019 (GMT -0600)
Marion-Critt Cnty AP, Marion,

Weather History for K5M9 - October, 2019

Change the Weather History Date:

Tuesday, October 22, 2019

  Actual Average (KEHR) Record (KEHR)
Temperature  
Mean Temperature 54 °F -  
Max Temperature 62 °F 69 °F 89 °F (1953)
Min Temperature 47 °F 44 °F 22 °F (1952)
Degree Days  
Heating Degree Days 11    
Growing Degree Days 4 (Base 50)    
Moisture  
Dew Point 37 °F    
Average Humidity 56    
Maximum Humidity 89    
Minimum Humidity 32    
Precipitation  
Precipitation 0.00 in - - ()
Sea Level Pressure  
Sea Level Pressure 29.93 in    
Wind  
Wind Speed 9 mph (WSW)    
Max Wind Speed 18 mph    
Max Gust Speed 26 mph    
Visibility 10 miles    
Events      
Averages and records for this station are not official NWS values.
T = Trace of Precipitation, MM = Missing Value Source: NWS Daily Summary

Daily Weather History Graph

Daily Weather History Graph

Search for Another Location

Airport or City:

Astronomy

Oct. 22, 2019 Rise Set
Actual Time 7:06 AM CDT 6:06 PM CDT
Civil Twilight 6:40 AM CDT 6:32 PM CDT
Nautical Twilight 6:09 AM CDT 7:03 PM CDT
Astronomical Twilight 5:39 AM CDT 7:33 PM CDT
Moon 12:27 AM CDT (10/22) 3:05 PM CDT (10/22)
Length of Visible Light 11h 52m
Length of Day
10h 59m
Last Quarter, 37% of the Moon is Illuminated
Oct 22
Last Quarter
Oct 27
New
Nov 4
First Quarter
Nov 12
Full
Nov 19
Last Quarter

Hourly Weather History & Observations

Time (CDT) Temp. Dew Point Humidity Pressure Visibility Wind Dir Wind Speed Gust Speed Precip Events Conditions
12:15 AM 57.2 °F 52.5 °F 84% 29.85 in 10.0 mi WSW 8.1 mph - N/A   Clear
12:35 AM 56.5 °F 49.5 °F 77% 29.84 in 10.0 mi WSW 6.9 mph - N/A   Clear
12:55 AM 55.6 °F 48.7 °F 78% 29.84 in 10.0 mi SW 3.5 mph - N/A   Clear
1:15 AM 54.0 °F 49.5 °F 85% 29.83 in 10.0 mi SW 4.6 mph - N/A   Clear
1:35 AM 53.2 °F 49.8 °F 88% 29.83 in 10.0 mi SW 4.6 mph - N/A   Clear
1:55 AM 52.5 °F 49.5 °F 89% 29.83 in 10.0 mi SW 5.8 mph - N/A   Clear
2:15 AM 53.4 °F 46.6 °F 78% 29.83 in 10.0 mi SW 11.5 mph - N/A   Clear
2:35 AM 54.0 °F 46.4 °F 76% 29.84 in 10.0 mi WSW 9.2 mph - N/A   Clear
2:55 AM 53.6 °F 46.0 °F 76% 29.84 in 10.0 mi WSW 10.4 mph - N/A   Clear
3:15 AM 53.1 °F 44.1 °F 71% 29.83 in 10.0 mi WSW 9.2 mph - N/A   Clear
3:35 AM 52.5 °F 42.8 °F 70% 29.83 in 10.0 mi WSW 9.2 mph - N/A   Clear
3:55 AM 51.8 °F 42.1 °F 69% 29.84 in 10.0 mi SW 8.1 mph - N/A   Clear
4:15 AM 50.9 °F 42.3 °F 72% 29.84 in 10.0 mi WSW 9.2 mph - N/A   Clear
4:35 AM 50.5 °F 41.9 °F 72% 29.85 in 10.0 mi WSW 10.4 mph - N/A   Clear
4:55 AM 50.2 °F 40.6 °F 70% 29.85 in 10.0 mi WSW 8.1 mph - N/A   Clear
5:15 AM 50.0 °F 39.9 °F 68% 29.86 in 10.0 mi WSW 9.2 mph - N/A   Clear
5:35 AM 49.3 °F 39.7 °F 70% 29.86 in 10.0 mi SW 4.6 mph - N/A   Clear
5:55 AM 48.6 °F 40.5 °F 74% 29.87 in 10.0 mi SW 6.9 mph - N/A   Clear
6:15 AM 48.4 °F 40.3 °F 74% 29.88 in 10.0 mi SW 6.9 mph - N/A   Clear
6:35 AM 47.7 °F 39.7 °F 74% 29.89 in 10.0 mi WSW 6.9 mph - N/A   Clear
6:55 AM 47.7 °F 39.2 °F 72% 29.89 in 10.0 mi WSW 9.2 mph - N/A   Clear
7:15 AM 47.5 °F 39.0 °F 72% 29.89 in 10.0 mi SW 6.9 mph - N/A   Clear
7:35 AM 47.5 °F 39.4 °F 73% 29.90 in 10.0 mi SW 9.2 mph - N/A   Clear
7:55 AM 48.2 °F 39.4 °F 72% 29.91 in 10.0 mi WSW 9.2 mph - N/A   Clear
8:15 AM 49.1 °F 39.7 °F 70% 29.91 in 10.0 mi WSW 8.1 mph - N/A   Clear
8:35 AM 50.4 °F 39.9 °F 67% 29.92 in 10.0 mi WSW 10.4 mph - N/A   Clear
8:55 AM 51.8 °F 39.7 °F 63% 29.93 in 10.0 mi WSW 10.4 mph 16.1 mph N/A   Clear
9:15 AM 53.1 °F 39.2 °F 59% 29.94 in 10.0 mi West 12.7 mph 17.3 mph N/A   Clear
9:35 AM 52.9 °F 38.5 °F 58% 29.94 in 10.0 mi West 16.1 mph 21.9 mph N/A   Clear
9:55 AM 54.0 °F 38.8 °F 57% 29.95 in 10.0 mi West 10.4 mph 20.7 mph N/A   Clear
10:15 AM 55.0 °F 39.2 °F 55% 29.95 in 10.0 mi West 12.7 mph 19.6 mph N/A   Clear
10:35 AM 56.3 °F 39.0 °F 52% 29.95 in 10.0 mi West 16.1 mph 20.7 mph N/A   Clear
10:55 AM 57.2 °F 38.8 °F 50% 29.95 in 10.0 mi WSW 11.5 mph 18.4 mph N/A   Clear
11:15 AM 58.5 °F 38.7 °F 48% 29.95 in 10.0 mi SW 15.0 mph 20.7 mph N/A   Clear
11:35 AM 59.0 °F 39.4 °F 48% 29.95 in 10.0 mi WSW 12.7 mph - N/A   Clear
11:55 AM 59.9 °F 39.2 °F 46% 29.95 in 10.0 mi WSW 12.7 mph 18.4 mph N/A   Clear
12:15 PM 60.6 °F 38.7 °F 44% 29.94 in 10.0 mi WSW 13.8 mph 20.7 mph N/A   Clear
12:35 PM 61.0 °F 38.1 °F 43% 29.94 in 10.0 mi WSW 13.8 mph 25.3 mph N/A   Clear
12:55 PM 61.7 °F 38.7 °F 43% 29.93 in 10.0 mi WSW 12.7 mph 20.7 mph N/A   Clear
1:15 PM 61.2 °F 38.1 °F 42% 29.93 in 10.0 mi WSW 16.1 mph 24.2 mph N/A   Clear
1:35 PM 61.5 °F 38.1 °F 42% 29.93 in 10.0 mi West 16.1 mph 24.2 mph N/A   Scattered Clouds
1:55 PM 61.5 °F 36.7 °F 40% 29.92 in 10.0 mi West 17.3 mph 24.2 mph N/A   Scattered Clouds
2:15 PM 61.2 °F 36.3 °F 40% 29.93 in 10.0 mi West 18.4 mph 26.5 mph N/A   Scattered Clouds
2:35 PM 61.7 °F 36.5 °F 39% 29.93 in 10.0 mi West 16.1 mph 24.2 mph N/A   Clear
3:15 PM 61.0 °F 35.1 °F 38% 29.94 in 10.0 mi West 16.1 mph 26.5 mph N/A   Clear
3:35 PM 60.6 °F 33.4 °F 36% 29.94 in 10.0 mi WSW 17.3 mph 25.3 mph N/A   Clear
3:55 PM 60.4 °F 32.9 °F 36% 29.94 in 10.0 mi West 11.5 mph 24.2 mph N/A   Clear
4:15 PM 60.3 °F 32.2 °F 35% 29.94 in 10.0 mi SW 15.0 mph 21.9 mph N/A   Clear
4:35 PM 59.9 °F 32.0 °F 35% 29.95 in 10.0 mi West 17.3 mph 21.9 mph N/A   Clear
4:55 PM 59.4 °F 30.6 °F 34% 29.95 in 10.0 mi West 17.3 mph 20.7 mph N/A   Clear
5:15 PM 58.6 °F 29.1 °F 33% 29.96 in 10.0 mi West 10.4 mph 23.0 mph N/A   Clear
5:35 PM 58.1 °F 28.6 °F 32% 29.95 in 10.0 mi WSW 10.4 mph 20.7 mph N/A   Clear
5:55 PM 57.0 °F 28.2 °F 33% 29.96 in 10.0 mi WSW 8.1 mph - N/A   Clear
6:15 PM 55.8 °F 28.4 °F 35% 29.96 in 10.0 mi WSW 6.9 mph - N/A   Clear
6:35 PM 54.9 °F 28.4 °F 36% 29.97 in 10.0 mi WSW 8.1 mph - N/A   Clear
6:55 PM 52.2 °F 30.0 °F 43% 29.98 in 10.0 mi SW 4.6 mph - N/A   Clear
7:15 PM 52.7 °F 28.4 °F 39% 29.98 in 10.0 mi WSW 5.8 mph - N/A   Clear
7:35 PM 52.0 °F 28.6 °F 41% 29.99 in 10.0 mi WSW 6.9 mph - N/A   Clear
7:55 PM 51.8 °F 28.6 °F 41% 30.00 in 10.0 mi WSW 8.1 mph - N/A   Clear
8:15 PM 50.9 °F 28.8 °F 43% 30.00 in 10.0 mi WSW 5.8 mph - N/A   Clear
8:35 PM 48.4 °F 30.7 °F 51% 30.01 in 10.0 mi SW 5.8 mph - N/A   Clear
8:55 PM 50.0 °F 29.3 °F 45% 30.01 in 10.0 mi WSW 6.9 mph - N/A   Clear
9:15 PM 50.2 °F 29.8 °F 46% 30.02 in 10.0 mi WSW 5.8 mph - N/A   Scattered Clouds
9:35 PM 49.8 °F 31.1 °F 49% 30.03 in 10.0 mi WSW 5.8 mph - N/A   Mostly Cloudy
9:55 PM 49.8 °F 31.1 °F 49% 30.04 in 10.0 mi WSW 4.6 mph - N/A   Scattered Clouds
10:15 PM 48.7 °F 31.6 °F 52% 30.05 in 10.0 mi WSW 5.8 mph - N/A   Clear
10:35 PM 48.0 °F 31.6 °F 53% 30.05 in 10.0 mi West 4.6 mph - N/A   Clear
10:55 PM 47.5 °F 31.8 °F 55% 30.05 in 10.0 mi West 4.6 mph - N/A   Clear
11:15 PM 49.1 °F 30.9 °F 50% 30.05 in 10.0 mi West 6.9 mph - N/A   Clear
11:35 PM 48.0 °F 31.8 °F 54% 30.06 in 10.0 mi West 8.1 mph - N/A   Clear
11:55 PM 47.3 °F 31.8 °F 55% 30.06 in 10.0 mi West 6.9 mph - N/A   Clear